#timestamp,LO_Frequency,Hit 
1503255615.4,286047002.0,N
1503255635.2,286046998.5,N
1503255655.1,286046996.5,N
1503255656.0,286046996.5,N
1503255675.8,286046993.3,N
1503255695.6,286046996.8,N
1503255715.5,286047001.2,N
1503255735.3,286047010.8,N
1503255755.1,286047013.7,N
1503255775.9,286047020.0,P
1503255795.7,286047018.8,N
1503255815.5,286047018.7,N
1503255835.4,286047018.0,N
1503255855.2,286047020.7,P
1503255875.0,286047002.4,N
1503255875.9,286047002.4,N
1503255895.8,286047000.8,N
1503255915.6,286046995.4,N
1503255935.4,286046997.7,N
1503255955.3,286047000.2,N
1503255975.1,286047000.3,N
1503255976.0,286047000.3,N
1503255995.8,286047004.0,N
1503256015.7,286047002.3,N
1503256035.5,286047001.4,N
1503256055.3,286046999.5,N
1503256075.2,286047005.0,N
1503256095.9,286047003.7,N
1503256115.7,286047001.4,N
1503256135.6,286047008.9,N
1503256155.4,286047010.9,N
1503256175.2,286047008.2,N
1503256195.0,286047013.9,N
1503256196.0,286047013.9,N
1503256215.8,286047012.2,N
1503256235.6,286047009.6,N
1503256255.4,286047011.9,N
1503256275.3,286047012.2,N
1503256295.1,286047010.3,N
1503256315.8,286047008.1,N
1503256335.7,286047001.3,N
1503256355.5,286047002.8,N
1503256375.3,286046998.5,N
1503256395.2,286047003.4,N
1503256415.9,286047004.2,N
1503256435.7,286047004.2,N
1503256455.6,286047007.3,N
1503256475.4,286047007.5,N
1503256495.2,286047003.9,N
1503256515.0,286047003.7,N
1503256516.0,286047003.7,N
1503256535.8,286047004.8,N
1503256555.6,286047003.3,N
1503256575.4,286047002.7,N
1503256595.3,286047004.0,N
1503256615.1,286047003.3,N
1503256635.8,286047005.2,N
1503256655.7,286047001.8,N
1503256675.5,286047005.7,N
1503256695.3,286047005.0,N
1503256715.2,286047008.9,N
1503256735.9,286047004.2,N
1503256755.7,286046990.9,N
1503256775.6,286046982.0,P
1503256795.4,286046967.4,N
1503256815.2,286046962.2,N
1503256835.1,286046962.7,N
1503256836.0,286046962.7,N
1503256855.8,286046956.0,N
1503256875.6,286046950.7,P
1503256895.5,286046975.3,N
1503256915.3,286046966.2,P
1503256935.1,286046963.0,P
1503256955.9,286046995.7,P
1503256975.7,286046994.3,N
1503256995.5,286046993.5,N
1503257015.4,286046994.3,N
1503257035.2,286046990.3,N
1503257055.0,286046987.4,N
1503257055.9,286046987.4,N
1503257075.8,286046986.5,N
1503257095.6,286046986.5,N
1503257115.4,286046987.7,N
1503257135.3,286046985.1,N
1503257155.1,286046982.9,N
1503257156.0,286046982.9,N
1503257175.8,286046981.3,N
1503257195.7,286046981.7,N
1503257215.5,286046976.2,N
1503257235.3,286046970.3,P
1503257255.2,286046983.1,N
1503257275.9,286046983.0,N
1503257295.7,286046983.5,N
1503257315.6,286046978.2,P
1503257335.4,286046991.8,P
1503257355.2,286046991.0,N
1503257375.1,286046989.8,N
1503257376.0,286046989.8,N
1503257395.8,286046987.5,N
1503257415.6,286046989.4,N
1503257435.4,286046987.7,N
1503257455.3,286046986.6,P
1503257475.1,286046996.8,P
1503257495.9,286046997.7,N
1503257515.7,286046995.1,N
1503257535.5,286046994.0,N
1503257555.3,286046992.8,N
1503257575.2,286046988.9,N
1503257595.9,286046985.4,P
1503257615.7,286046992.6,N
1503257635.6,286046994.7,N
1503257655.4,286046992.9,N
1503257675.2,286046988.8,P
1503257695.1,286046997.5,N
1503257696.0,286046997.5,N
1503257715.8,286046993.7,N
1503257735.6,286046992.2,N
1503257755.5,286046994.4,N
1503257775.3,286046992.5,N
1503257795.1,286046990.3,P
1503257815.9,286046995.5,N
1503257835.7,286046995.8,N
1503257855.5,286046993.7,N
1503257875.4,286046994.8,N
1503257895.2,286046993.7,P
1503257915.0,286047000.4,P
1503257916.0,286047000.4,N
1503257935.8,286046996.9,N
1503257955.6,286046999.2,N
1503257975.4,286046997.1,N
1503257995.3,286046997.7,N
1503258015.1,286046999.5,N
1503258035.8,286046998.4,N
1503258055.7,286046999.0,N
1503258075.5,286046996.6,N
1503258095.3,286046997.9,N
1503258115.2,286046995.7,N
1503258135.9,286046995.9,N
1503258155.7,286046996.4,N
1503258175.6,286046993.8,P
1503258195.4,286046994.9,N
1503258215.2,286046998.7,N
1503258235.1,286046998.7,N
1503258236.0,286046998.7,N
1503258255.8,286046999.4,N
1503258275.6,286046996.6,N
1503258295.5,286046997.2,N
1503258315.3,286046995.0,N
1503258335.1,286046996.1,N
1503258355.8,286046996.3,N
1503258375.7,286046993.7,P
1503258395.5,286046997.5,N
1503258415.4,286046995.1,N
1503258435.2,286046995.0,P
1503258455.0,286047002.6,P
1503258455.9,286047002.6,N
1503258475.8,286047002.3,N
1503258495.6,286047000.2,N
1503258515.4,286046998.2,N
1503258535.3,286047002.2,N
1503258555.1,286047004.4,N
1503258556.0,286047004.4,N
1503258575.8,286047003.6,N
1503258595.7,286047007.4,N
1503258615.5,286047003.4,N
1503258635.3,286047002.1,N
1503258655.1,286047000.2,N
1503258675.9,286047002.1,N
1503258695.7,286047000.0,N
1503258715.5,286047002.1,N
1503258735.4,286047002.0,N
1503258755.2,286047002.6,N
1503258775.0,286047004.1,N
1503258775.9,286047004.1,N
1503258795.8,286046999.7,N
1503258815.6,286047000.9,N
1503258835.4,286047002.2,N
1503258855.3,286046999.7,N
1503258875.1,286046998.2,N
1503258876.0,286046998.2,N
1503258895.8,286047001.2,N
1503258915.7,286046999.3,N
1503258935.5,286047000.7,N
1503258955.3,286047001.0,N
1503258975.1,286047000.6,N
1503258995.9,286047001.4,N
1503259015.7,286047002.3,N
1503259035.5,286047002.9,N
1503259055.4,286047004.5,N
1503259075.2,286047007.3,P
1503259095.0,286047010.1,P
1503259095.9,286047010.1,N
1503259115.8,286047010.6,P
1503259135.6,286046998.6,N
1503259155.5,286046996.8,N
1503259175.3,286046995.9,N
1503259195.1,286046994.5,N
